Location: Moscow
(55.7500°N, 37.5830°E)
Time: 16:49:44
(UTC+03:00)

Transit 2A - Pass Details

Date: 05 December 2021
Orbit: 591 x 967 km, 66.7° (Epoch: 21 January)

Event Time Altitude Azimuth Distance (km) Brightness Sun altitude
Rises 09:47:12 0° 315° (NW) 3,661 8.8 5.4°
Reaches altitude 10° 09:50:08 10° 304° (NW) 2,716 8.3 5.6°
Maximum altitude 09:55:22 27° 249° (WSW) 1,737 7.8 6.0°
Drops below altitude 10° 10:00:28 10° 194° (SSW) 2,634 9.5 6.4°
Sets 10:03:16 0° 183° (S) 3,530 10.5 6.6°
